Other Public Products
Issued by NWS Grand Forks, ND

Home | Current Version | Previous Version | Graphics & Text | Print | Product List | Glossary On
Versions: 1 2 3 4 5 6 7 8 9 10 11 12 13 14 15 16 17 18 19 20 21 22 23 24 25 26 27 28 29 30 31 32 33 34 35 36 37 38 39 40 41 42 43 44 45 46 47 48 49 50
000
FPUS83 KFGF 282010
OPUFGF
PRAIRIE TO PINES WEATHER ROUNDUP
NATIONAL WEATHER SERVICE EASTERN NORTH DAKOTA/GRAND FORKS ND
200 PM CST FRI NOV 28 2014

 **SATELLITE DATA USED TO AUGMENT SKY COVER AT AUTOMATED STATIONS**
 *****  WEATHER ACROSS EASTERN NORTH DAKOTA  *****

CITY           SKY/WX    TMP DP  RH WIND       PRES   REMARKS
GRAND FORKS    FLURRIES  15   8  73 E8        29.83F WCI   4
GRAND FORKS AF CLOUDY    15   9  77 SE10      29.82F WCI   2
GRAND CITY NWS   N/A     14 N/A N/A SE6         N/A  WCI   5
BUXTON         NOT AVBL
DEVILS LAKE    CLOUDY    12   1  62 SE13      29.73F WCI  -3
FARGO          CLOUDY    18  10  71 E6        29.82F WCI  10
WAHPETON ARPT  CLOUDY    18  12  79 SE9       29.80F WCI   6
$$

 *****  WEATHER ACROSS CENTRAL AND WESTERN NORTH DAKOTA  *****

CITY           SKY/WX    TMP DP  RH WIND       PRES   REMARKS
JAMESTOWN      MOSUNNY   13   7  77 SE14      29.72F WCI  -2
BISMARCK       MOSUNNY   20  14  77 SE12      29.65F WCI   8
MINOT          CLOUDY    13   7  77 E14       29.62F WCI  -2
MINOT AFB      CLOUDY    12   9  85 SE18      29.63F WCI  -5
GARRISON         N/A     16  12  84 SE14      29.61F WCI   2
WILLISTON      PTSUNNY   23  17  78 SE8       29.52F WCI  14
DICKINSON      CLOUDY    38  29  70 SE6       29.51F
HETTINGER      CLOUDY    38  29  70 SE6       29.56F
$$

 *****  OTHER OBSERVATIONS NORTHEAST NORTH DAKOTA  *****

CITY           SKY/WX    TMP DP  RH WIND       PRES   REMARKS
WALHALLA       LGT SNOW  14  10  85 SE9       29.83F WCI   2
LANGDON        MOCLDY    12   7  79 SE18      29.74F WCI  -5
CAVALIER       CLOUDY    16  10  79 SE7       29.84F WCI   6
GRAFTON        LGT SNOW  14  10  85 SE9       29.85F WCI   2
CANDO          CLOUDY    12   9  85 SE15      29.75F WCI  -4
FORT TOTTEN      N/A     13   7  76 SE7       29.95S WCI   3
ROLLA          CLOUDY    10   7  85 SE14      29.71F WCI  -5
RUGBY          CLOUDY    12   9  85 SE15      29.70F WCI  -4
 ***** THE ABOVE OBSERVATIONS ARE NON NWS ARE NOT QUALITY
        CONTROLLED AND MAY MIS-REPORT RAIN FOR SNOW...
$$

 *****  OTHER OBSERVATIONS SOUTHEAST NORTH DAKOTA *****

CITY           SKY/WX    TMP DP  RH WIND       PRES   REMARKS
COOPERSTOWN    NOT AVBL
VALLEY CITY    CLOUDY    14  10  85 SE12      29.75F WCI   0
OAKES            N/A     16  12  86 E15       29.73F WCI   1
GWINNER        MOCLDY    18  12  79 E10       29.77F WCI   6
SHEYENNE NWR     N/A     15   9  78 E9        29.95S WCI   3
BUFFALO        NOT AVBL
WYNDMERE         N/A     16  10  79 E10         N/A  WCI   3
 ***** THE ABOVE OBSERVATIONS ARE NON NWS ARE NOT QUALITY
       CONTROLLED AND MAY MIS-REPORT RAIN FOR SNOW...
$$

  *****  WEATHER ACROSS NORTHERN MINNESOTA  *****

CITY           SKY/WX    TMP DP  RH WIND       PRES   REMARKS
FLAG ISLAND    CLOUDY    12   3  67 SE5       29.89F WCI   4
WARROAD        PTSUNNY   12   9  85 NE10      29.89S WCI  -1
ROSEAU         CLOUDY    16   9  73 E10       29.87F WCI   3
HALLOCK        MOSUNNY   18  10  73 E9        29.85F WCI   6
THF RVR FALLS  CLOUDY    14   9  79 E12       29.83F WCI   0
HALSTAD          N/A     15   9  74 E6          N/A  WCI   7
FOSSTON        CLOUDY    16   7  67 E7        29.82F WCI   6
BAUDETTE       CLOUDY    14   7  73 E7        29.87F WCI   4
WASKISH        CLOUDY    16  10  79 CALM      29.87S
CROOKSTON      CLOUDY    16   9  73 E8        29.85F WCI   5
$$
  *****  WEATHER ACROSS CENTRAL AND WEST MINNESOTA  *****

CITY           SKY/WX    TMP DP  RH WIND       PRES   REMARKS
BEMIDJI        CLOUDY    13   7  78 E9        29.81F WCI   1
PARK RAPIDS    CLOUDY    15   8  73 E9        29.80F WCI   3
WADENA         MOSUNNY   14   9  79 E8        29.80F WCI   3
DETROIT LAKES  PTSUNNY   18  10  73 SE13      29.78F WCI   4
MOORHEAD       PTSUNNY   18  12  79 SE7       29.82F WCI   8
FERGUS FALLS   MOSUNNY   16   9  73 SE8       29.83F WCI   5
ELBOW LAKE     FAIR      16  10  79 E10       29.78F WCI   3
MORRIS MN      FAIR      19  12  73 SE9       29.78S WCI   9
STAPLES        CLOUDY    12   9  85 SE6       29.81F WCI   3
WHEATON        MOSUNNY   16  12  86 E13       29.80F WCI   2
$$
  *****  WEATHER ELSEWHERE ACROSS MINNESOTA  *****

CITY           SKY/WX    TMP DP  RH WIND       PRES   REMARKS
DULUTH         LGT SNOW  14   9  80 SE8       29.87F WCI   3
INTRNTL FALLS  CLOUDY    16   8  71 SE8       29.89F WCI   5
ELY            FLURRIES  18  10  73 E5        29.88F WCI  11
CLOQUET        LGT SNOW  14   9  79 E6        29.88F WCI   5
BRAINERD       CLOUDY    13   8  81 E7        29.84F WCI   3
HIBBING        CLOUDY    16   8  71 SE6       29.88F WCI   7
ALEXANDRIA     CLOUDY    15  10  80 E14       29.79F WCI   0
SAINT CLOUD    CLOUDY    19  12  74 E7        29.84F WCI  10
MINNEAPOLIS    LGTSLEET  21  14  74 E13       29.85F WCI   9
$$

  *****  WEATHER ACROSS SOUTH DAKOTA  *****

CITY           SKY/WX    TMP DP  RH WIND       PRES   REMARKS
SIOUX FALLS    PTSUNNY   32  26  78 E10       29.68F WCI  24
BROOKINGS      NOT AVBL
WATERTOWN      PTSUNNY   21  15  78 E6        29.67F WCI  13
HURON          MOSUNNY   37  24  59 NW3       29.67F
SISSETON         N/A     18  13  80 S10       29.75F WCI   6
ABERDEEN       MOSUNNY   22  15  75 NE9       29.71F WCI  12
MITCHELL       MOSUNNY   40  27  59 SE10      29.66F
PIERRE         SUNNY     40  24  53 E5        29.62F
MOBRIDGE       SUNNY     28  21  75 E9        29.61F WCI  19
RAPID CITY     MOSUNNY   63  34  33 SE9       29.59F
$$

  *****  SOME WEATHER IN NEARBY STATES *****

CITY           SKY/WX    TMP DP  RH WIND       PRES   REMARKS
GLASGOW MT     SUNNY     26  22  84 SE14      29.42F FOG     WCI  14
GREAT FALLS MT MOSUNNY   53  34  48 SW28G45   29.41F
CHEYENNE WY    PTSUNNY   58  10  15 W23G41    29.85F
SCOTTSBLUFF NE CLOUDY    63  28  26 NW8       29.73F
OMAHA NE       MOSUNNY   48  30  49 S15       29.73F
DES MOINES IA  MOSUNNY   41  28  60 S7        29.80F
DAVENPORT IA   CLOUDY    33  24  69 S9        29.93F
CHICAGO IL     CLOUDY    30  20  66 S18       30.02F WCI  18
EAU CLAIRE WI  CLOUDY    21  13  71 SE9       29.90F WCI  11
LA CROSSE WI   PTSUNNY   27  16  63 SE5       29.92F WCI  22
$$

  *****  SOME NATIONAL WEATHER *****

CITY           SKY/WX    TMP DP  RH WIND       PRES   REMARKS
LA GUARDIA NY  MOSUNNY   36  19  50 NW13G21   30.17R
RALEIGH NC     MOSUNNY   43  18  36 VRB6      30.30R
ATLANTA GA     SUNNY     49  15  25 CALM      30.30F
NEW ORLEANS LA MOSUNNY   61  39  44 SE7       30.31F
OKLAHOMA CITY  PTSUNNY   67  38  34 S17G28    29.92F
ALBUQUERQUE NM MOSUNNY   57  21  24 S8        30.18F
SALT LAKE CITY PTSUNNY   65  11  12 S18       29.91F
LOS ANGELES CA SUNNY     76  40  27 CALM      29.95F
BOISE ID       PTSUNNY   63  26  24 S10       29.74F
SEATTLE WA     RAIN      43  41  93 N21       29.48F FOG
$$

*** WEATHER ACROSS MANITOBA...SASKATCHEWAN AND ONTARIO ***
                ***ONTARIO***

CITY           SKY/WX    TMP DP  RH WIND       PRES   REMARKS
GERALDTON      MOSUNNY    7   0  72 SW3       30.01F
THUNDER BAY    PTSUNNY   16   5  62 E5        30.02F WCI   9
SIOUX LOOKOUT  PTSUNNY    9  -4  56 E3        29.96S
TORONTO        CLOUDY    27  12  54 W14       30.20S WCI  15
BIG TROUT LK   CLEAR     -9 -17  70 W6        30.04F WCI -23
PICKLE LAKE    PTSUNNY    1  -8  66 CALM      29.96F
DRYDEN         CLOUDY    10  -4  52 E6        29.92F WCI   1
KENORA         PTSUNNY   10  -2  56 SE3       29.90F
$$
                *** MANITOBA***

CITY           SKY/WX    TMP DP  RH WIND       PRES   REMARKS
BRANDON        LGT SNOW   7   3  85 E17       29.77F VSB 3/4 WCI -12
DAUPHIN        LGT SNOW   7   1  78 E14       29.83F WCI -10
ISLAND LAKE    PTSUNNY  -11 -20  64 W3        30.06F
PILOT MOUND      N/A     10   7  85 E14         N/A  WCI  -5
THE PAS        CLOUDY    -6 -13  71 E8        30.00F WCI -21
THOMPSON       MOCLDY   -13 -20  70 W3        30.06F
WINNIPEG       CLOUDY    10   3  72 E9        29.89F WCI  -2
LYNN LAKE      CLEAR    -11 -17  77 NW6       30.01F WCI -25
CHURCHILL      PTCLDY   -11 -18  70 NW16      30.01F WCI -34
GILLAM         PTCLDY   -13 -20  70 NW7       30.06F WCI -29
$$
                ***SASKATCHEWAN***

CITY           SKY/WX    TMP DP  RH WIND       PRES   REMARKS
ESTEVAN        LGT SNOW  10   5  79 SE18G25   29.55F VSB 1   WCI  -8
KINDERSLEY     LGT SNOW   3   0  85 N14       29.56R DRFTSNOWWCI -15
LLOYDMINSTER   FLURRIES  -4  -9  77 NE9       29.68F WCI -20
PRINCE ALBERT  LGT SNOW  -2  -8  78 E20       29.74F VSB 3/4 WCI -25
REGINA         LGT SNOW  10   7  85 SE20G26   29.51F DRFTSNOWWCI  -8


USA.gov is the U.S. government's official web portal to all federal, state and local government web resources and services.